Simultaneous Nadir Overpasses (SNOs) Predictions

Prediction of SNOs between GOES-14 and NPP Satellite Orbit:

Table of predicted SNOs for the next 14.0 days since TLE Epoch: 3/22/2019
Index Date Time (GOES-14) GOES-14 Lat,Lon NPP Lat,Lon Distance(km) Time Diff (sec)
1 03/23/2019 08:07:34 0.09,-104.41 -0.80,-100.48 449.18 80
2 03/24/2019 20:29:30 -0.10,-104.30 -0.40,-105.77 166.75 80
3 03/25/2019 20:08:04 -0.10,-104.30 0.61,-101.24 349.82 80
4 03/27/2019 08:29:51 0.10,-104.42 0.58,-106.50 237.64 80
5 03/28/2019 08:13:45 0.11,-104.42 -0.42,-101.96 279.97 80
6 03/29/2019 20:35:40 -0.11,-104.33 -0.78,-107.26 334.14 80
7 03/30/2019 20:14:15 -0.11,-104.33 0.23,-102.72 182.52 80
8 04/01/2019 08:36:02 0.11,-104.43 0.90,-108.00 406.52 80
9 04/02/2019 08:19:57 0.12,-104.44 -0.11,-103.46 111.30 80
10 04/04/2019 20:20:27 -0.12,-104.37 -0.08,-104.23 16.12 80




NCC Satellite Simultaneous Nadir Overpasses (SNOs) Prediction Service
